DLH5MJ EDDM-EDDS

Flight info

Callsign DLH5MJ
Flight time N/A
Altitude 22000
Route RIDAR6S/26L RIDAR L173 DODIL T127 TEKSI TEKSI1W
Aircraft A20N/M-SDE2E3FGHIRWXY/LB1

Departure

Time 2026-05-07 14:15
Airport Munich Airport (EDDM)

Arrival

Time N/A
Airport Stuttgart Airport (EDDS)
Time Latitude Longitude Altitude Speed Heading
2026-05-07 13:52 48.35487 11.79284 1457 ft 0 kts 263°
2026-05-07 14:06 48.35488 11.79294 1457 ft 4 kts 263°
2026-05-07 14:06 48.35490 11.79332 1459 ft 4 kts 263°
2026-05-07 14:07 48.35493 11.79369 1461 ft 4 kts 263°
2026-05-07 14:07 48.35496 11.79406 1459 ft 4 kts 261°
2026-05-07 14:07 48.35508 11.79438 1456 ft 4 kts 205°
2026-05-07 14:07 48.35532 11.79440 1459 ft 4 kts 173°
2026-05-07 14:08 48.35534 11.79440 1460 ft 0 kts 173°
2026-05-07 14:10 48.35518 11.79443 1463 ft 6 kts 173°
2026-05-07 14:10 48.35422 11.79458 1467 ft 22 kts 175°
2026-05-07 14:10 48.35225 11.79493 1463 ft 32 kts 173°
2026-05-07 14:11 48.35004 11.79532 1464 ft 27 kts 174°
2026-05-07 14:11 48.34867 11.79556 1459 ft 21 kts 173°
2026-05-07 14:11 48.34797 11.79670 1457 ft 17 kts 83°
2026-05-07 14:11 48.34812 11.79860 1462 ft 20 kts 84°
2026-05-07 14:12 48.34830 11.80084 1467 ft 22 kts 89°
2026-05-07 14:12 48.34757 11.80235 1467 ft 18 kts 160°
2026-05-07 14:12 48.34654 11.80256 1465 ft 16 kts 173°
2026-05-07 14:12 48.34533 11.80277 1463 ft 19 kts 173°
2026-05-07 14:13 48.34455 11.80158 1468 ft 16 kts 262°
2026-05-07 14:13 48.34453 11.80131 1468 ft 0 kts 263°
2026-05-07 14:14 48.34452 11.80129 1468 ft 1 kts 263°
2026-05-07 14:14 48.34446 11.80050 1465 ft 25 kts 263°
2026-05-07 14:14 48.34399 11.79416 1462 ft 95 kts 263°
2026-05-07 14:14 48.34294 11.78141 1468 ft 146 kts 265°
2026-05-07 14:15 48.34164 11.76604 1984 ft 147 kts 267°
2026-05-07 14:15 48.34037 11.75072 2717 ft 146 kts 267°
2026-05-07 14:15 48.33947 11.73665 3316 ft 151 kts 267°
2026-05-07 14:15 48.33866 11.72008 3710 ft 169 kts 268°
2026-05-07 14:16 48.33777 11.70144 4111 ft 187 kts 267°
2026-05-07 14:16 48.33672 11.68089 4631 ft 207 kts 267°
2026-05-07 14:16 48.33540 11.65817 5177 ft 232 kts 265°
2026-05-07 14:16 48.33354 11.63396 6269 ft 226 kts 264°
2026-05-07 14:17 48.33155 11.61050 7186 ft 234 kts 263°
2026-05-07 14:17 48.32937 11.58560 7926 ft 252 kts 263°
2026-05-07 14:17 48.32768 11.55843 8746 ft 266 kts 272°
2026-05-07 14:17 48.33253 11.53139 9852 ft 271 kts 297°
2026-05-07 14:18 48.34447 11.50938 10857 ft 278 kts 313°
2026-05-07 14:18 48.35890 11.48948 11868 ft 283 kts 316°
2026-05-07 14:18 48.37397 11.46997 12896 ft 287 kts 316°
2026-05-07 14:18 48.38904 11.45036 13855 ft 292 kts 315°
2026-05-07 14:19 48.40460 11.42969 14563 ft 305 kts 315°
2026-05-07 14:19 48.42098 11.40754 14886 ft 329 kts 315°
2026-05-07 14:19 48.43849 11.38388 15173 ft 353 kts 315°
2026-05-07 14:19 48.45734 11.35815 15403 ft 376 kts 315°
2026-05-07 14:20 48.47715 11.33094 15890 ft 387 kts 315°
2026-05-07 14:20 48.49689 11.30373 16687 ft 390 kts 315°
2026-05-07 14:20 48.51694 11.27576 17523 ft 393 kts 315°
2026-05-07 14:20 48.53708 11.24726 18326 ft 396 kts 315°
2026-05-07 14:21 48.55720 11.21864 19035 ft 399 kts 315°
2026-05-07 14:21 48.57780 11.19060 19676 ft 403 kts 316°
2026-05-07 14:21 48.59845 11.16155 20330 ft 407 kts 315°
2026-05-07 14:21 48.61922 11.13207 20984 ft 411 kts 315°
2026-05-07 14:22 48.64022 11.10248 21631 ft 414 kts 315°
2026-05-07 14:22 48.66127 11.07306 22251 ft 418 kts 316°
2026-05-07 14:22 48.68289 11.04297 22884 ft 422 kts 316°
2026-05-07 14:22 48.70440 11.01306 23493 ft 425 kts 316°
2026-05-07 14:23 48.72636 10.98252 23869 ft 428 kts 316°
2026-05-07 14:23 48.74817 10.95216 23992 ft 429 kts 316°
2026-05-07 14:23 48.77003 10.92167 24021 ft 421 kts 316°
2026-05-07 14:23 48.79107 10.89233 24040 ft 401 kts 316°
2026-05-07 14:24 48.81187 10.86326 24038 ft 413 kts 316°
2026-05-07 14:24 48.83291 10.83379 24036 ft 414 kts 316°
2026-05-07 14:24 48.85408 10.80411 24042 ft 413 kts 316°
2026-05-07 14:24 48.87536 10.77426 24045 ft 413 kts 316°
2026-05-07 14:25 48.89624 10.74493 24051 ft 413 kts 316°
2026-05-07 14:25 48.91747 10.71508 24050 ft 413 kts 316°
2026-05-07 14:25 48.93858 10.68536 24051 ft 413 kts 316°
2026-05-07 14:25 48.95971 10.65557 24058 ft 413 kts 316°
2026-05-07 14:26 48.98056 10.62614 24058 ft 413 kts 316°
2026-05-07 14:26 49.00171 10.59626 24050 ft 413 kts 315°
2026-05-07 14:26 49.02257 10.56676 24057 ft 413 kts 315°
2026-05-07 14:26 49.04374 10.53677 24083 ft 413 kts 315°
2026-05-07 14:27 49.06486 10.50681 24070 ft 415 kts 316°
2026-05-07 14:27 49.08586 10.47699 24067 ft 414 kts 316°
2026-05-07 14:27 49.10712 10.44676 24056 ft 414 kts 316°
2026-05-07 14:27 49.12802 10.41701 24056 ft 414 kts 316°
2026-05-07 14:28 49.14924 10.38677 24058 ft 414 kts 315°
2026-05-07 14:28 49.17001 10.35715 24059 ft 414 kts 315°
2026-05-07 14:28 49.19115 10.32695 24060 ft 414 kts 315°
2026-05-07 14:28 49.21197 10.29716 24050 ft 414 kts 315°
2026-05-07 14:29 49.23308 10.26693 24050 ft 414 kts 315°
2026-05-07 14:29 49.25414 10.23675 24047 ft 415 kts 315°
2026-05-07 14:29 49.27510 10.20666 24050 ft 416 kts 315°
2026-05-07 14:29 49.29625 10.17626 24045 ft 415 kts 315°
2026-05-07 14:30 49.31741 10.14577 24047 ft 418 kts 315°
2026-05-07 14:30 49.33837 10.11557 24047 ft 418 kts 315°
2026-05-07 14:30 49.35955 10.08502 24048 ft 418 kts 315°
2026-05-07 14:30 49.38083 10.05429 24048 ft 418 kts 315°
2026-05-07 14:31 49.40187 10.02387 24048 ft 418 kts 315°